User: anonymous   Login
Location: NJAA Observatory
(40.6819°N, 74.8979°W)
Time: 13:36:04
(UTC-04:00)
Language:

Cosmos 1461 - Orbit

View from above orbital plane
View from above orbital plane
View from above satellite
View from above satellite

Ground track
Ground track

The orbit data is extracted from the following two-line orbital elements,

1 14064U 83044A   18112.94792582 +.00000410 +00000-0 +48144-4 0  9993
2 14064 065.0018 046.0511 0120451 280.7672 077.9904 14.94046280769623
Epoch (UTC): 22 April 2018 22:45:00
Eccentricity: 0.0120451
inclination: 65.0018°
perigee height: 501 km
apogee height: 669 km
right ascension of ascending node: 46.0511°
argument of perigee: 280.7672°
revolutions per day: 14.94046280
mean anomaly at epoch: 77.9904°
orbit number at epoch: 76962

The dashed part of the orbit path shows where the satellite is in the earth's shadow,  

DLR